"Pseudo-MPEC" for A11kwRB

Created 2025 Apr 7 6:31:03 UT using Find_Orb

Click here for an explanation of pseudo-MPECs

 
 Astrometry: 
     A11kwRB* C2025 03 10.09572307 42 55.723-57 13 56.57   ~3A4l 17.11oVNEOCPW68
     A11kwRB  C2025 03 10.09942007 42 43.229-57 13 55.78   ~3A4l 16.91oVNEOCPW68
     A11kwRB  C2025 03 10.10656507 42 19.080-57 13 52.93   ~3A4l 16.62oVNEOCPW68
     A11kwRB  C2025 03 10.11862307 41 38.134-57 13 46.56   ~3A4l 16.70oVNEOCPW68
     A11kwRB KB2025 03 10.32965 07 30 20.981-57 11 32.50   ~3B4V 16.8 GXNEOCPE86
     A11kwRB KB2025 03 10.34323 07 29 28.963-57 11 21.19   ~3B4V 16.7 GXNEOCPE86
     A11kwRB KB2025 03 10.35718 07 28 35.177-57 11 06.68   ~3B4V 16.7 GXNEOCPE86
     A11kwRB* C2025 03 11.78109805 16 08.784-51 30 45.86   ~3CBl 15.72oVNEOCPM22
     A11kwRB  C2025 03 11.78389805 15 46.054-51 28 46.09   ~3CBl 15.98oVNEOCPM22
     A11kwRB  C2025 03 11.79131905 14 46.214-51 23 26.95   ~3CBl 15.63oVNEOCPM22
     A11kwRB  C2025 03 11.80162805 13 22.922-51 15 55.26   ~3CBl 15.98oVNEOCPM22

Station data:
(E86) Speranza Observatory, Otaki  (S40.761810 E175.169360)  New Zealand.
(M22) ATLAS South Africa, Sutherland  (S32.380156 E20.810590)  South Africa.
   Observers L. Denneau, R. Siverd, J. Tonry, H. Weiland. Measurers L.
   Denneau, N. Erasmus, A. Fitzsimmons, A. Lawrence, J. Robinson, R. Siverd,
   J. Tonry, H. Weiland. 0.5-m reflector + CCD.
(W68) ATLAS Chile, Rio Hurtado  (S30.471010 W70.764980)  Chile.  Observers L.
   Denneau, R. Siverd, J. Tonry, H. Weiland. Measurers L. Denneau, N.
   Erasmus, A. Fitzsimmons, A. Lawrence, J. Robinson, R. Siverd, J. Tonry, H.
   Weiland. 0.5-m reflector + CCD.

Orbital elements:  A11kwRB
   Perihelion 2025 May 22.05991 +/- 0.159 TT =  1:26:16 (JD 2460817.55991)
Epoch 2025 Mar 11.0 TT = JDT 2460745.5   Earth MOID: 0.0027      AutoNEOCP
M 292.71741300 +/- 0.23             (J2000 ecliptic)
n   0.93370348 +/- 0.00127          Peri.   87.62387 +/- 0.13
a   1.03672458 +/- 0.00094          Node   172.87861 +/- 0.0017
e   0.2034828 +/- 0.00103           Incl.   18.23049 +/- 0.08
P   1.056/385.554d         H 22.78  G  0.15   U  8.3
q 0.82576887 +/- 0.000325    Q 1.24768028 +/- 0.0022
From 11 observations 2025 Mar. 10-11 (40.9 hr); mean residual 0".28
Residuals in arcseconds: 
250310 W68  .08+  .02-    250310 E86  .16-  .28+    250311 M22  .73-  .33+    
250310 W68  .07-  .23-    250310 E86  .34-  .34+    250311 M22  .09+  .10-    
250310 W68  .06+  .02+    250310 E86  .49+  .40-    250311 M22  .15+  .15-    
250310 W68  .04-  .01-    250311 M22  .48+  .09-    

Ephemerides (geocentric):
Date (UTC) HH   RA             Dec           delta  r     elong  mag " sig PA
---- --------  ------------   ------------  ------ ------ -----  --- --------
2025 04 07 07  22 36 42.917   +46 45 34.07  .16826 .90430  50.9 23?? 7.72 116
2025 04 07 08  22 36 43.826   +46 45 17.96  .16854 .90418  50.9 23?? 7.70 116
2025 04 07 09  22 36 44.745   +46 45 01.78  .16881 .90405  50.9 23?? 7.68 116
2025 04 07 10  22 36 45.674   +46 44 45.54  .16909 .90392  50.9 23?? 7.66 116
2025 04 07 11  22 36 46.612   +46 44 29.25  .16937 .90380  50.9 23?? 7.65 116
2025 04 07 12  22 36 47.560   +46 44 12.89  .16965 .90367  50.9 23?? 7.63 116
2025 04 07 13  22 36 48.518   +46 43 56.47  .16992 .90355  50.9 23?? 7.61 116
2025 04 07 14  22 36 49.485   +46 43 39.99  .17020 .90342  50.9 23?? 7.59 116
2025 04 07 15  22 36 50.462   +46 43 23.45  .17048 .90330  50.9 23?? 7.58 116
2025 04 07 16  22 36 51.449   +46 43 06.85  .17076 .90317  50.9 23?? 7.56 115
2025 04 07 17  22 36 52.445   +46 42 50.19  .17103 .90305  50.9 23?? 7.54 115
2025 04 07 18  22 36 53.450   +46 42 33.47  .17131 .90292  50.9 23?? 7.52 115
2025 04 07 19  22 36 54.465   +46 42 16.69  .17159 .90280  50.9 23?? 7.51 115
2025 04 07 20  22 36 55.490   +46 41 59.85  .17187 .90267  50.9 23?? 7.49 115
2025 04 07 21  22 36 56.524   +46 41 42.95  .17214 .90255  50.9 23?? 7.47 115
2025 04 07 22  22 36 57.568   +46 41 26.00  .17242 .90242  50.9 23?? 7.45 115
2025 04 07 23  22 36 58.621   +46 41 08.98  .17270 .90230  50.9 23?? 7.44 115
2025 04 08 00  22 36 59.683   +46 40 51.91  .17297 .90217  50.9 23?? 7.42 115
2025 04 08 01  22 37 00.755   +46 40 34.78  .17325 .90205  50.9 23?? 7.40 115
2025 04 08 02  22 37 01.837   +46 40 17.59  .17353 .90192  50.9 23?? 7.38 115
2025 04 08 03  22 37 02.928   +46 40 00.34  .17381 .90180  50.9 23?? 7.37 115
2025 04 08 04  22 37 04.028   +46 39 43.04  .17408 .90167  50.9 23?? 7.35 115
2025 04 08 05  22 37 05.138   +46 39 25.68  .17436 .90155  50.9 23?? 7.33 115
2025 04 08 06  22 37 06.257   +46 39 08.26  .17464 .90143  50.9 23?? 7.31 115
2025 04 08 07  22 37 07.385   +46 38 50.78  .17492 .90130  50.9 23?? 7.30 115
2025 04 08 08  22 37 08.523   +46 38 33.25  .17519 .90118  50.9 23?? 7.28 115
2025 04 08 09  22 37 09.670   +46 38 15.66  .17547 .90105  50.9 23?? 7.26 115
2025 04 08 10  22 37 10.826   +46 37 58.02  .17575 .90093  50.9 23?? 7.24 115
2025 04 08 11  22 37 11.992   +46 37 40.32  .17603 .90081  50.9 23?? 7.23 115
2025 04 08 12  22 37 13.166   +46 37 22.56  .17630 .90068  50.9 23?? 7.21 115
2025 04 08 13  22 37 14.351   +46 37 04.75  .17658 .90056  50.9 23?? 7.19 115
2025 04 08 14  22 37 15.544   +46 36 46.88  .17686 .90043  50.9 23?? 7.17 115
2025 04 08 15  22 37 16.747   +46 36 28.96  .17714 .90031  50.9 23?? 7.16 115
2025 04 08 16  22 37 17.959   +46 36 10.98  .17741 .90019  50.9 23?? 7.14 115
2025 04 08 17  22 37 19.180   +46 35 52.94  .17769 .90006  50.9 23?? 7.12 115
2025 04 08 18  22 37 20.410   +46 35 34.85  .17797 .89994  50.9 23?? 7.10 115
2025 04 08 19  22 37 21.650   +46 35 16.71  .17825 .89982  50.9 23?? 7.09 115
2025 04 08 20  22 37 22.898   +46 34 58.51  .17852 .89969  50.9 23?? 7.07 115
2025 04 08 21  22 37 24.156   +46 34 40.26  .17880 .89957  51.0 23?? 7.05 115
2025 04 08 22  22 37 25.423   +46 34 21.96  .17908 .89945  51.0 23?? 7.03 115
2025 04 08 23  22 37 26.699   +46 34 03.60  .17936 .89932  51.0 23?? 7.02 115
2025 04 09 00  22 37 27.984   +46 33 45.18  .17963 .89920  51.0 23?? 7.00 115
2025 04 09 01  22 37 29.279   +46 33 26.72  .17991 .89908  51.0 23?? 6.98 114
2025 04 09 02  22 37 30.582   +46 33 08.20  .18019 .89895  51.0 23?? 6.96 114
2025 04 09 03  22 37 31.895   +46 32 49.63  .18047 .89883  51.0 23?? 6.95 114
2025 04 09 04  22 37 33.216   +46 32 31.00  .18074 .89871  51.0 23?? 6.93 114
2025 04 09 05  22 37 34.547   +46 32 12.32  .18102 .89858  51.0 23?? 6.91 114
2025 04 09 06  22 37 35.886   +46 31 53.59  .18130 .89846  51.0 23?? 6.89 114